R/V Oceanus Calliope CSV data file - OC468-I  (Time stamps are GMT)
Date, Time_GMT, Depth12, Depth35, WXTP_Ta, WXTS_Ta, AT, WXTP_Pa, WXTS_Pa, BPR, Dec_Lat, Dec_Lon, SSCND, SSTMP, IMET_PRC, PRC, COG, SOG, WXTP_Rc, WXTS_Rc, WXTP_Ri, WXTS_Ri, WXTP_Ua, WXTS_Ua, WXTP_Dm, WXTS_Dm, WXTP_Sm, WXTS_Sm, HRH, SBE45C, SBE45S, SBE45T, SBE45V, SBE48, Salinity, FLR, HDT, SPD, SWR, WXTP_TD, WXTS_TD, Wnd_TD, WXTP_TS, WXTS_TS, Wnd_TS, HdChkSum=6C
2010/08/18, 00:00:20, 774.30, 0.00, 29.1, 28.70, 29.10, 1014.8, 1014.8, 1014.82, 28.46943, -86.84600, 65.4364, 34.8203, 0.00, 56.28, 322.4, 9.80, 56.3, 56.99, 0.0, 0.0, 75.6, 79.0, 285, 282, 1.8, 1.7, 75.60, 64.44000, 35.8934, 34.3244, 1554.893, 29.94, 36.1758, 107.60, 325.2, 10.00, 19.77, 162.1, 160.9, 162.1, 4.814, 4.902, 4.8145, 6C
2010/08/18, 00:01:20, 776.90, 0.00, 29.1, 28.70, 29.10, 1014.8, 1014.8, 1014.82, 28.47157, -86.84795, 65.4381, 34.8185, 0.00, 56.28, 321.6, 10.00, 56.3, 56.99, 0.0, 0.0, 76.4, 79.5, 272, 271, 1.4, 1.4, 76.40, 64.43000, 35.8939, 34.3150, 1554.877, 29.93, 36.1781, 107.84, 325.3, 10.22, 20.10, 157.1, 157.0, 157.1, 5.193, 5.217, 5.1932, 6C
2010/08/18, 00:02:20, 0.00, 0.00, 29.1, 28.70, 29.10, 1014.8, 1014.8, 1014.82, 28.47380, -86.84987, 65.4372, 34.8169, 0.00, 56.28, 320.7, 10.10, 56.3, 56.99, 0.0, 0.0, 77.8, 80.0, 296, 295, 1.7, 1.4, 77.80, 64.42000, 35.8937, 34.3051, 1554.859, 29.91, 36.1786, 107.84, 324.9, 10.19, 19.19, 160.1, 156.6, 160.1, 4.658, 4.747, 4.6576, 6C
2010/08/18, 00:03:20, 772.40, 0.00, 29.1, 28.70, 29.10, 1014.8, 1014.8, 1014.82, 28.47597, -86.85187, 65.4312, 34.8170, 0.00, 56.28, 321.1, 9.90, 56.3, 56.99, 0.0, 0.0, 77.9, 80.4, 287, 283, 1.8, 1.4, 77.90, 64.41000, 35.8939, 34.2955, 1554.842, 29.90, 36.1748, 107.84, 324.6, 9.97, 18.67, 162.1, 157.4, 162.1, 4.780, 4.891, 4.7799, 6C
2010/08/18, 00:04:20, 771.90, 0.00, 29.1, 28.80, 29.10, 1014.8, 1014.8, 1014.82, 28.47813, -86.85387, 65.4315, 34.8136, 0.00, 56.28, 321.8, 9.90, 56.3, 56.99, 0.0, 0.0, 77.9, 80.8, 279, 284, 1.6, 1.4, 77.90, 64.40000, 35.8932, 34.2866, 1554.825, 29.89, 36.1774, 107.84, 325.1, 10.09, 18.45, 160.0, 157.7, 160.0, 4.992, 4.854, 4.9916, 6C
2010/08/18, 00:05:20, 771.80, 0.00, 29.1, 28.80, 29.10, 1014.8, 1014.9, 1014.82, 28.48032, -86.85577, 65.4327, 34.8104, 0.00, 56.28, 324.6, 10.00, 56.3, 56.99, 0.0, 0.0, 76.9, 80.3, 292, 292, 2.2, 1.9, 76.90, 64.39000, 35.8933, 34.2766, 1554.807, 29.89, 36.1804, 107.60, 329.0, 10.17, 17.42, 168.7, 165.0, 168.7, 4.709, 4.718, 4.7091, 6C
2010/08/18, 00:06:20, 773.10, 0.00, 29.1, 28.70, 29.10, 1014.8, 1014.9, 1014.82, 28.48265, -86.85755, 65.4273, 34.8105, 0.00, 56.28, 325.4, 10.00, 56.3, 56.99, 0.0, 0.0, 77.3, 79.7, 303, 301, 1.7, 1.5, 77.30, 64.38000, 35.8925, 34.2679, 1554.791, 29.89, 36.1769, 109.12, 327.6, 10.30, 16.46, 163.6, 161.4, 163.6, 4.439, 4.551, 4.4389, 6C
2010/08/18, 00:07:20, 767.70, 0.00, 29.0, 28.70, 29.00, 1014.8, 1014.9, 1014.82, 28.48498, -86.85940, 65.4268, 34.8075, 0.00, 56.28, 324.9, 10.20, 56.3, 56.99, 0.0, 0.0, 76.3, 79.0, 307, 310, 1.7, 1.5, 76.30, 64.37000, 35.8921, 34.2587, 1554.774, 29.89, 36.1787, 107.84, 327.6, 10.35, 15.11, 161.7, 158.8, 161.7, 4.335, 4.348, 4.3348, 6C
2010/08/18, 00:08:20, 772.70, 0.00, 29.1, 28.70, 29.10, 1014.8, 1014.9, 1014.82, 28.48728, -86.86127, 65.4272, 34.8059, 0.00, 56.28, 324.9, 10.20, 56.3, 56.99, 0.0, 0.0, 76.6, 79.6, 303, 303, 1.7, 1.5, 76.60, 64.36000, 35.8925, 34.2480, 1554.755, 29.89, 36.1801, 106.96, 328.3, 10.37, 13.49, 162.6, 160.2, 162.6, 4.462, 4.529, 4.4624, 6C
2010/08/18, 00:09:20, 768.50, 0.00, 29.1, 28.70, 29.10, 1014.9, 1014.9, 1014.92, 28.48965, -86.86313, 65.4194, 34.8052, 0.00, 56.28, 324.5, 10.20, 56.3, 56.99, 0.0, 0.0, 77.0, 79.2, 295, 297, 1.9, 1.5, 77.00, 64.34000, 35.8919, 34.2386, 1554.738, 29.88, 36.1757, 107.60, 328.2, 10.51, 12.19, 166.2, 161.3, 166.2, 4.729, 4.741, 4.7285, 6C
2010/08/18, 00:10:20, 767.20, 0.00, 29.1, 28.80, 29.10, 1014.9, 1015.0, 1014.92, 28.49198, -86.86498, 65.4216, 34.8024, 0.00, 56.28, 325.3, 10.20, 56.3, 56.99, 0.0, 0.0, 77.6, 79.9, 304, 307, 2.0, 1.8, 77.60, 64.33000, 35.8930, 34.2278, 1554.719, 29.89, 36.1791, 106.64, 327.7, 10.43, 11.22, 166.1, 163.2, 166.1, 4.379, 4.351, 4.3788, 6C
2010/08/18, 00:11:20, 786.60, 0.00, 29.1, 28.80, 29.10, 1014.9, 1015.0, 1014.92, 28.49428, -86.86685, 65.4217, 34.8013, 0.00, 56.28, 325.3, 10.30, 56.3, 56.99, 0.0, 0.0, 76.9, 79.9, 292, 295, 2.6, 2.2, 76.90, 64.32000, 35.8911, 34.2195, 1554.702, 29.89, 36.1799, 107.60, 328.5, 10.55, 10.25, 175.3, 170.5, 175.3, 4.803, 4.667, 4.8027, 6C
2010/08/18, 00:12:20, 765.30, 0.00, 29.1, 28.80, 29.10, 1014.9, 1015.0, 1014.92, 28.49667, -86.86870, 65.4174, 34.8000, 0.00, 56.28, 324.5, 10.20, 56.3, 56.99, 0.0, 0.0, 76.5, 79.3, 293, 295, 2.6, 2.5, 76.50, 64.31000, 35.8912, 34.2087, 1554.683, 29.89, 36.1781, 108.48, 327.7, 10.48, 9.45, 174.0, 172.9, 174.0, 4.775, 4.683, 4.7751, 6C
2010/08/18, 00:13:20, 767.00, 0.00, 29.1, 28.80, 29.10, 1015.0, 1015.0, 1015.02, 28.49900, -86.87052, 65.4178, 34.7993, 0.00, 56.28, 325.0, 10.20, 56.3, 56.99, 0.0, 0.0, 75.2, 78.1, 275, 272, 1.9, 1.6, 75.20, 64.30000, 35.8926, 34.1974, 1554.664, 29.89, 36.1788, 106.96, 328.5, 10.42, 8.82, 164.9, 161.5, 164.9, 5.262, 5.288, 5.2620, 6C
2010/08/18, 00:14:20, 762.20, 0.00, 29.0, 28.80, 29.00, 1015.0, 1015.0, 1015.02, 28.50128, -86.87238, 65.4116, 34.7968, 0.00, 56.28, 324.9, 10.00, 56.3, 56.99, 0.0, 0.0, 75.2, 78.3, 273, 266, 2.0, 1.7, 75.20, 64.29000, 35.8916, 34.1877, 1554.646, 29.89, 36.1767, 107.60, 328.0, 10.23, 8.10, 166.3, 162.6, 166.3, 5.342, 5.473, 5.3419, 6C
2010/08/18, 00:15:20, 761.40, 0.00, 29.0, 28.80, 29.00, 1015.0, 1015.1, 1015.02, 28.50357, -86.87425, 65.4120, 34.7942, 0.00, 56.28, 324.4, 10.10, 56.3, 56.99, 0.0, 0.0, 75.5, 78.1, 279, 281, 2.2, 1.8, 75.50, 64.28000, 35.8912, 34.1775, 1554.627, 29.89, 36.1788, 106.96, 327.7, 10.29, 7.37, 169.2, 164.9, 169.2, 5.163, 5.036, 5.1629, 6C
2010/08/18, 00:16:20, 763.90, 0.00, 29.0, 28.80, 29.00, 1015.0, 1015.1, 1015.02, 28.50585, -86.87608, 65.4125, 34.7926, 0.00, 56.28, 323.9, 10.00, 56.3, 56.99, 0.0, 0.0, 74.6, 77.7, 267, 268, 1.9, 1.5, 74.60, 64.26000, 35.8910, 34.1667, 1554.607, 29.88, 36.1802, 107.28, 327.5, 10.25, 6.72, 165.0, 161.1, 165.0, 5.578, 5.430, 5.5776, 6C
2010/08/18, 00:17:20, 760.40, 0.00, 29.1, 28.80, 29.10, 1015.1, 1015.1, 1015.12, 28.50813, -86.87793, 65.4054, 34.7911, 0.00, 56.28, 324.5, 10.00, 56.3, 56.99, 0.0, 0.0, 74.8, 77.5, 290, 287, 1.9, 1.6, 74.80, 64.25000, 35.8917, 34.1562, 1554.589, 29.87, 36.1768, 108.48, 328.5, 10.17, 6.11, 167.0, 163.4, 167.0, 4.676, 4.777, 4.6757, 6C
2010/08/18, 00:18:20, 762.50, 0.00, 29.1, 28.80, 29.10, 1015.1, 1015.1, 1015.12, 28.51038, -86.87977, 65.4068, 34.7899, 0.00, 56.28, 324.2, 10.10, 56.3, 56.99, 0.0, 0.0, 73.1, 75.8, 277, 277, 2.0, 1.9, 73.10, 64.24000, 35.8911, 34.1459, 1554.569, 29.87, 36.1786, 106.64, 328.3, 10.36, 5.54, 166.2, 165.1, 166.2, 5.107, 5.088, 5.1075, 6C
2010/08/18, 00:19:20, 762.10, 0.00, 29.1, 28.80, 29.10, 1015.1, 1015.1, 1015.12, 28.51268, -86.88158, 65.4069, 34.7880, 0.00, 56.28, 325.0, 10.00, 56.3, 56.99, 0.0, 0.0, 72.1, 75.4, 273, 270, 2.2, 2.0, 72.10, 64.23000, 35.8913, 34.1350, 1554.550, 29.87, 36.1800, 108.16, 327.8, 10.31, 5.18, 168.9, 166.5, 168.9, 5.343, 5.388, 5.3429, 6C
2010/08/18, 00:20:20, 764.40, 0.00, 29.1, 28.80, 29.10, 1015.1, 1015.1, 1015.12, 28.51498, -86.88340, 65.4000, 34.7866, 0.00, 56.28, 324.8, 9.90, 56.3, 56.99, 0.0, 0.0, 72.0, 74.3, 287, 292, 1.8, 1.5, 72.00, 64.22000, 35.8895, 34.1256, 1554.531, 29.87, 36.1766, 108.48, 327.6, 10.25, 4.70, 165.8, 162.1, 165.8, 4.825, 4.703, 4.8249, 6C
2010/08/18, 00:21:20, 757.40, 0.00, 29.2, 28.80, 29.20, 1015.1, 1015.1, 1015.12, 28.51727, -86.88523, 65.4028, 34.7845, 0.00, 56.28, 326.0, 10.00, 56.3, 56.99, 0.0, 0.0, 73.2, 75.0, 285, 287, 2.0, 1.4, 73.20, 64.20000, 35.8904, 34.1146, 1554.512, 29.87, 36.1798, 108.16, 328.2, 10.30, 4.25, 167.7, 160.6, 167.7, 4.842, 4.783, 4.8416, 6C
2010/08/18, 00:22:20, 760.50, 0.00, 29.2, 28.90, 29.20, 1015.1, 1015.1, 1015.12, 28.51952, -86.88702, 65.3969, 34.7822, 0.00, 56.28, 324.9, 9.90, 56.3, 56.99, 0.0, 0.0, 72.0, 74.0, 277, 276, 1.8, 1.5, 72.00, 64.19000, 35.8899, 34.1031, 1554.491, 29.87, 36.1778, 109.44, 329.0, 10.12, 3.86, 165.2, 161.8, 165.2, 5.108, 5.087, 5.1078, 6C
2010/08/18, 00:23:20, 755.70, 0.00, 29.2, 28.90, 29.20, 1015.1, 1015.1, 1015.12, 28.52180, -86.88878, 65.3964, 34.7815, 0.00, 56.28, 325.4, 9.70, 56.3, 56.99, 0.0, 0.0, 72.2, 74.3, 288, 289, 2.0, 1.7, 72.20, 64.18000, 35.8903, 34.0910, 1554.470, 29.87, 36.1779, 106.32, 327.4, 10.14, 3.52, 168.1, 164.5, 168.1, 4.761, 4.730, 4.7614, 6C
2010/08/18, 00:24:20, 757.90, 0.00, 29.2, 28.90, 29.20, 1015.1, 1015.2, 1015.12, 28.52407, -86.89060, 65.3963, 34.7792, 0.00, 56.28, 324.7, 10.00, 56.3, 56.99, 0.0, 0.0, 71.9, 74.8, 268, 269, 1.8, 1.4, 71.90, 64.17000, 35.8896, 34.0811, 1554.451, 29.87, 36.1795, 109.44, 327.6, 10.32, 3.19, 163.6, 159.6, 163.6, 5.406, 5.272, 5.4056, 6C
2010/08/18, 00:25:20, 758.30, 0.00, 29.2, 28.90, 29.20, 1015.1, 1015.2, 1015.12, 28.52635, -86.89238, 65.3905, 34.7769, 0.00, 56.28, 324.8, 10.10, 56.3, 56.99, 0.0, 0.0, 69.6, 71.9, 262, 270, 1.7, 1.2, 69.60, 64.15000, 35.8900, 34.0693, 1554.430, 29.88, 36.1775, 108.16, 328.3, 10.32, 2.94, 162.7, 158.2, 162.7, 5.511, 5.173, 5.5107, 6C
2010/08/18, 00:26:20, 754.70, 0.00, 29.2, 28.90, 29.20, 1015.1, 1015.2, 1015.12, 28.52863, -86.89422, 65.3910, 34.7751, 0.00, 56.28, 325.1, 10.00, 56.3, 56.99, 0.0, 0.0, 71.3, 73.6, 280, 283, 1.8, 1.1, 71.30, 64.14000, 35.8910, 34.0562, 1554.407, 29.89, 36.1790, 106.96, 327.8, 10.33, 2.71, 165.6, 157.6, 165.6, 5.060, 4.959, 5.0599, 6C
2010/08/18, 00:27:20, 754.70, 0.00, 29.3, 28.90, 29.30, 1015.1, 1015.1, 1015.12, 28.53093, -86.89603, 65.3911, 34.7731, 0.00, 56.28, 324.4, 10.20, 56.3, 56.99, 0.0, 0.0, 70.2, 73.5, 277, 273, 1.8, 1.6, 70.20, 64.13000, 35.8891, 34.0475, 1554.389, 29.89, 36.1805, 106.64, 328.3, 10.42, 2.35, 164.9, 162.5, 164.9, 5.204, 5.283, 5.2044, 6C
2010/08/18, 00:28:20, 754.40, 0.00, 29.3, 29.00, 29.30, 1015.1, 1015.2, 1015.12, 28.53325, -86.89787, 65.3843, 34.7715, 0.00, 56.28, 325.0, 10.10, 56.3, 56.99, 0.0, 0.0, 69.7, 72.2, 285, 285, 1.5, 1.2, 69.70, 64.12000, 35.8893, 34.0356, 1554.368, 29.89, 36.1774, 107.28, 328.2, 10.41, 2.19, 162.7, 159.2, 162.7, 4.920, 4.929, 4.9197, 6C
2010/08/18, 00:29:20, 750.80, 0.00, 29.3, 29.00, 29.30, 1015.1, 1015.2, 1015.12, 28.53557, -86.89968, 65.3860, 34.7694, 0.00, 56.28, 324.7, 10.10, 56.3, 56.99, 0.0, 0.0, 70.4, 72.8, 278, 281, 1.8, 1.1, 70.40, 64.10000, 35.8887, 34.0251, 1554.348, 29.89, 36.1799, 107.28, 328.3, 10.28, 1.94, 164.5, 156.7, 164.5, 5.149, 5.034, 5.1486, 6C
2010/08/18, 00:30:20, 749.80, 0.00, 29.3, 29.00, 29.30, 1015.2, 1015.2, 1015.22, 28.53788, -86.90150, 65.3803, 34.7681, 0.00, 56.28, 324.8, 10.10, 56.3, 56.99, 0.0, 0.0, 70.7, 73.4, 260, 287, 1.5, 1.3, 70.70, 64.09000, 35.8889, 34.0128, 1554.326, 29.89, 36.1773, 106.96, 328.3, 10.44, 1.78, 159.9, 158.9, 159.9, 5.633, 4.958, 5.6330, 6C
2010/08/18, 00:31:20, 750.20, 0.00, 29.3, 29.00, 29.30, 1015.2, 1015.2, 1015.22, 28.54020, -86.90335, 65.3832, 34.7659, 0.00, 56.28, 325.4, 10.20, 56.3, 56.99, 0.0, 0.0, 70.1, 72.1, 279, 296, 1.5, 1.1, 70.10, 64.08000, 35.8889, 34.0007, 1554.304, 29.88, 36.1806, 106.08, 329.0, 10.59, 1.73, 161.8, 156.7, 161.8, 5.154, 4.815, 5.1542, 6C
2010/08/18, 00:32:20, 750.90, 0.00, 29.3, 29.00, 29.30, 1015.2, 1015.3, 1015.22, 28.54250, -86.90515, 65.3764, 34.7644, 0.00, 56.28, 324.3, 10.10, 56.3, 56.99, 0.0, 0.0, 70.0, 72.1, 296, 284, 0.8, 0.5, 70.00, 64.06000, 35.8873, 33.9907, 1554.285, 29.88, 36.1774, 107.84, 327.4, 10.52, 1.73, 153.6, 150.7, 153.6, 4.861, 5.074, 4.8613, 6C
2010/08/18, 00:33:20, 0.00, 0.00, 29.3, 29.00, 29.30, 1015.2, 1015.3, 1015.22, 28.54483, -86.90698, 65.3772, 34.7629, 0.00, 56.28, 325.3, 10.10, 56.3, 56.99, 0.0, 0.0, 71.3, 73.6, 270, 298, 1.5, 1.3, 71.30, 64.05000, 35.8884, 33.9774, 1554.261, 29.87, 36.1790, 106.08, 328.0, 10.39, 1.54, 161.2, 158.7, 161.2, 5.382, 4.712, 5.3815, 6C
2010/08/18, 00:34:20, 749.20, 0.00, 29.3, 29.00, 29.30, 1015.2, 1015.3, 1015.22, 28.54713, -86.90885, 65.3771, 34.7615, 0.00, 56.28, 324.4, 10.00, 56.3, 56.99, 0.0, 0.0, 69.6, 72.2, 260, 268, 1.3, 1.3, 69.60, 64.04000, 35.8869, 33.9672, 1554.241, 29.86, 36.1799, 106.32, 328.5, 10.41, 1.73, 158.2, 158.7, 158.2, 5.499, 5.325, 5.4991, 6C
2010/08/18, 00:35:20, 761.10, 0.00, 29.3, 29.00, 29.30, 1015.2, 1015.3, 1015.22, 28.54943, -86.91070, 65.3703, 34.7587, 0.00, 56.28, 324.1, 10.00, 56.3, 56.99, 0.0, 0.0, 68.9, 71.4, 289, 285, 1.0, 1.0, 68.90, 64.02000, 35.8878, 33.9546, 1554.219, 29.85, 36.1776, 107.28, 328.3, 10.24, 1.77, 155.5, 155.6, 155.5, 4.854, 4.923, 4.8540, 6C
2010/08/18, 00:36:20, 750.00, 0.00, 29.3, 29.00, 29.30, 1015.2, 1015.3, 1015.22, 28.55177, -86.91250, 65.3715, 34.7580, 0.00, 56.28, 324.7, 10.00, 56.3, 56.99, 0.0, 0.0, 72.7, 75.0, 295, 299, 1.2, 1.1, 72.70, 64.01000, 35.8873, 33.9426, 1554.197, 29.85, 36.1788, 106.96, 328.2, 10.29, 1.58, 157.8, 156.3, 157.8, 4.744, 4.699, 4.7441, 6C
2010/08/18, 00:37:20, 746.80, 0.00, 29.3, 29.00, 29.30, 1015.2, 1015.2, 1015.22, 28.55405, -86.91428, 65.3710, 34.7560, 0.00, 56.28, 324.7, 10.00, 56.3, 56.99, 0.0, 0.0, 72.5, 74.6, 326, 323, 1.9, 1.5, 72.50, 64.00000, 35.8878, 33.9302, 1554.175, 29.84, 36.1799, 106.96, 327.8, 10.38, 1.42, 159.4, 156.1, 159.4, 3.626, 3.971, 3.6257, 6C
2010/08/18, 00:38:20, 745.20, 0.00, 29.3, 29.10, 29.30, 1015.2, 1015.2, 1015.22, 28.55635, -86.91617, 65.3635, 34.7536, 0.00, 56.28, 324.1, 10.00, 56.3, 56.99, 0.0, 0.0, 71.6, 74.5, 290, 297, 1.5, 1.3, 71.60, 63.98000, 35.8872, 33.9184, 1554.153, 29.83, 36.1769, 106.32, 328.2, 10.24, 1.49, 161.7, 158.9, 161.7, 4.758, 4.629, 4.7577, 6C
2010/08/18, 00:39:20, 747.30, 0.00, 29.4, 29.10, 29.40, 1015.2, 1015.2, 1015.22, 28.55863, -86.91795, 65.3654, 34.7518, 0.00, 56.28, 325.4, 10.20, 56.3, 56.99, 0.0, 0.0, 75.2, 77.2, 322, 313, 2.3, 1.8, 75.20, 63.97000, 35.8874, 33.9060, 1554.131, 29.81, 36.1794, 107.60, 327.8, 10.30, 1.61, 167.4, 163.4, 167.4, 3.572, 4.102, 3.5716, 6C
2010/08/18, 00:40:20, 746.40, 0.00, 29.4, 29.10, 29.40, 1015.1, 1015.2, 1015.12, 28.56093, -86.91977, 65.3645, 34.7489, 0.00, 56.28, 325.7, 10.10, 56.3, 56.99, 0.0, 0.0, 75.1, 77.4, 309, 306, 2.1, 1.6, 75.10, 63.95000, 35.8883, 33.8929, 1554.107, 29.81, 36.1808, 106.08, 328.4, 10.38, 1.49, 167.1, 161.3, 167.1, 4.093, 4.364, 4.0925, 6C
2010/08/18, 00:41:20, 748.20, 0.00, 29.3, 29.10, 29.30, 1015.1, 1015.2, 1015.12, 28.56323, -86.92163, 65.3604, 34.7481, 0.00, 56.28, 325.3, 10.10, 56.3, 56.99, 0.0, 0.0, 73.6, 76.0, 318, 308, 1.8, 1.8, 73.60, 63.94000, 35.8873, 33.8816, 1554.086, 29.80, 36.1788, 108.48, 328.3, 10.55, 1.39, 160.3, 162.4, 160.3, 4.048, 4.322, 4.0482, 6C
2010/08/18, 00:42:20, 747.60, 0.00, 29.3, 29.00, 29.30, 1015.2, 1015.2, 1015.22, 28.56555, -86.92347, 65.3604, 34.7456, 0.00, 56.28, 325.3, 10.10, 56.3, 56.99, 0.0, 0.0, 75.5, 77.4, 310, 315, 2.4, 1.9, 75.50, 63.93000, 35.8866, 33.8703, 1554.065, 29.80, 36.1806, 106.96, 328.1, 10.39, 1.36, 171.1, 163.5, 171.1, 4.015, 4.041, 4.0146, 6C
2010/08/18, 00:43:20, 748.10, 0.00, 29.2, 29.00, 29.20, 1015.2, 1015.2, 1015.22, 28.56790, -86.92528, 65.3534, 34.7442, 0.00, 56.28, 325.7, 10.10, 56.3, 56.99, 0.0, 0.0, 74.3, 76.5, 306, 310, 2.6, 2.2, 74.30, 63.91000, 35.8873, 33.8573, 1554.042, 29.81, 36.1772, 106.64, 328.3, 10.37, 1.25, 174.2, 168.0, 174.2, 3.986, 3.933, 3.9859, 6C
2010/08/18, 00:44:20, 748.00, 0.00, 29.2, 29.00, 29.20, 1015.2, 1015.3, 1015.22, 28.57018, -86.92710, 65.3535, 34.7426, 0.00, 56.28, 325.4, 10.00, 56.3, 56.99, 0.0, 0.0, 74.5, 76.6, 318, 327, 2.2, 1.7, 74.50, 63.90000, 35.8875, 33.8440, 1554.017, 29.81, 36.1784, 107.60, 328.0, 10.36, 1.20, 166.2, 157.5, 166.2, 3.786, 3.862, 3.7856, 6C
2010/08/18, 00:45:20, 744.40, 0.00, 29.2, 29.00, 29.20, 1015.2, 1015.3, 1015.22, 28.57255, -86.92892, 65.3546, 34.7399, 0.00, 56.28, 325.9, 10.20, 56.3, 56.99, 0.0, 0.0, 74.8, 77.4, 326, 303, 2.2, 1.9, 74.80, 63.89000, 35.8871, 33.8325, 1553.996, 29.82, 36.1810, 107.60, 328.3, 10.37, 1.17, 163.8, 165.6, 163.8, 3.502, 4.362, 3.5016, 6C
2010/08/18, 00:46:20, 748.10, 0.00, 29.1, 28.90, 29.10, 1015.2, 1015.3, 1015.22, 28.57485, -86.93073, 65.3475, 34.7375, 0.00, 56.28, 324.6, 10.20, 56.3, 56.99, 0.0, 0.0, 74.0, 76.0, 314, 315, 2.0, 1.7, 74.00, 63.87000, 35.8866, 33.8206, 1553.974, 29.83, 36.1782, 106.64, 327.6, 10.38, 1.17, 165.3, 161.4, 165.3, 4.051, 4.166, 4.0510, 6C
2010/08/18, 00:47:20, 748.10, 0.00, 29.1, 28.90, 29.10, 1015.2, 1015.3, 1015.22, 28.57720, -86.93252, 65.3491, 34.7382, 0.00, 56.28, 326.1, 10.00, 56.3, 56.99, 0.0, 0.0, 75.2, 76.8, 315, 319, 2.2, 2.1, 75.20, 63.86000, 35.8857, 33.8094, 1553.953, 29.83, 36.1787, 106.32, 327.8, 10.34, 1.10, 167.6, 165.2, 167.6, 3.864, 3.779, 3.8637, 6C
2010/08/18, 00:48:20, 749.40, 0.00, 29.1, 28.90, 29.10, 1015.2, 1015.3, 1015.22, 28.57953, -86.93428, 65.3430, 34.7343, 0.00, 56.28, 325.8, 10.10, 56.3, 56.99, 0.0, 0.0, 76.0, 77.3, 308, 316, 2.0, 1.8, 76.00, 63.84000, 35.8862, 33.7961, 1553.929, 29.83, 36.1776, 108.16, 327.6, 10.39, 1.10, 166.9, 162.8, 166.9, 4.231, 4.077, 4.2312, 6C
2010/08/18, 00:49:20, 749.00, 0.00, 29.2, 29.00, 29.20, 1015.2, 1015.3, 1015.22, 28.58192, -86.93607, 65.3458, 34.7297, 0.00, 56.28, 327.0, 10.10, 56.3, 56.99, 0.0, 0.0, 75.4, 77.9, 287, 291, 1.4, 1.4, 75.40, 63.83000, 35.8864, 33.7841, 1553.907, 29.83, 36.1826, 106.32, 328.3, 10.44, 1.06, 161.8, 161.7, 161.8, 4.914, 4.817, 4.9141, 6C
2010/08/18, 00:50:20, 744.40, 0.00, 29.1, 28.90, 29.10, 1015.2, 1015.2, 1015.22, 28.58425, -86.93788, 65.3391, 34.7272, 0.00, 56.28, 326.0, 10.20, 56.3, 56.99, 0.0, 0.0, 74.2, 76.0, 317, 318, 1.9, 1.2, 74.20, 63.82000, 35.8861, 33.7724, 1553.885, 29.84, 36.1802, 106.32, 328.3, 10.41, 1.10, 164.2, 156.1, 164.2, 3.963, 4.346, 3.9631, 6C
2010/08/18, 00:51:20, 746.60, 0.00, 29.1, 28.90, 29.10, 1015.2, 1015.2, 1015.22, 28.58660, -86.93970, 65.3388, 34.7255, 0.00, 56.28, 326.4, 10.10, 56.3, 56.99, 0.0, 0.0, 75.1, 76.6, 302, 304, 1.3, 1.2, 75.10, 63.80000, 35.8867, 33.7595, 1553.862, 29.84, 36.1812, 108.48, 328.3, 10.43, 1.06, 159.6, 158.2, 159.6, 4.601, 4.598, 4.6013, 6C
2010/08/18, 00:52:20, 750.50, 0.00, 29.1, 28.90, 29.10, 1015.2, 1015.2, 1015.22, 28.58892, -86.94147, 65.3328, 34.7239, 0.00, 56.28, 326.1, 10.00, 56.3, 56.99, 0.0, 0.0, 76.8, 78.6, 311, 326, 2.4, 1.8, 76.80, 63.79000, 35.8874, 33.7465, 1553.839, 29.84, 36.1785, 107.60, 328.2, 10.39, 1.10, 173.1, 161.3, 173.1, 3.930, 3.746, 3.9303, 6C
2010/08/18, 00:53:20, 756.60, 0.00, 29.1, 29.00, 29.10, 1015.2, 1015.2, 1015.22, 28.59125, -86.94328, 65.3333, 34.7232, 0.00, 56.28, 326.0, 10.00, 56.3, 56.99, 0.0, 0.0, 75.6, 77.7, 313, 316, 2.3, 1.7, 75.60, 63.78000, 35.8863, 33.7353, 1553.817, 29.84, 36.1793, 107.28, 327.7, 10.49, 0.92, 170.7, 162.3, 170.7, 3.923, 4.094, 3.9226, 6C
2010/08/18, 00:54:20, 744.40, 0.00, 29.1, 28.90, 29.10, 1015.2, 1015.2, 1015.22, 28.59362, -86.94503, 65.3332, 34.7209, 0.00, 56.28, 326.5, 10.20, 56.3, 56.99, 0.0, 0.0, 75.5, 76.9, 308, 309, 2.5, 2.1, 75.50, 63.76000, 35.8866, 33.7226, 1553.795, 29.85, 36.1809, 107.60, 327.9, 10.44, 0.98, 173.3, 167.8, 173.3, 4.105, 4.175, 4.1049, 6C
2010/08/18, 00:55:20, 755.40, 0.00, 29.1, 28.90, 29.10, 1015.2, 1015.2, 1015.22, 28.59597, -86.94680, 65.3304, 34.7196, 0.00, 56.28, 326.3, 10.00, 56.3, 56.99, 0.0, 0.0, 75.7, 77.7, 315, 319, 2.7, 2.1, 75.70, 63.75000, 35.8861, 33.7110, 1553.773, 29.86, 36.1800, 107.28, 328.2, 10.25, 0.98, 175.7, 166.4, 175.7, 3.760, 3.852, 3.7596, 6C
2010/08/18, 00:56:20, 0.00, 0.00, 29.1, 28.90, 29.10, 1015.2, 1015.3, 1015.22, 28.59832, -86.94862, 65.3290, 34.7169, 0.00, 56.28, 325.7, 10.20, 56.3, 56.99, 0.0, 0.0, 76.3, 78.3, 317, 322, 2.3, 1.7, 76.30, 63.74000, 35.8857, 33.6998, 1553.752, 29.87, 36.1811, 106.64, 327.6, 10.29, 0.98, 169.5, 160.6, 169.5, 3.778, 3.951, 3.7784, 6C
2010/08/18, 00:57:20, 754.70, 0.00, 29.1, 28.90, 29.10, 1015.2, 1015.3, 1015.22, 28.60065, -86.95037, 65.3234, 34.7157, 0.00, 56.28, 326.9, 10.20, 56.3, 56.99, 0.0, 0.0, 76.6, 78.2, 302, 304, 2.9, 2.6, 76.60, 63.72000, 35.8863, 33.6864, 1553.728, 29.87, 36.1784, 107.28, 328.1, 10.24, 1.01, 181.0, 177.1, 181.0, 4.431, 4.345, 4.4313, 6C
2010/08/18, 00:58:20, 751.00, 0.00, 29.1, 28.90, 29.10, 1015.2, 1015.3, 1015.22, 28.60300, -86.95213, 65.3247, 34.7129, 0.00, 56.28, 325.1, 10.20, 56.3, 56.99, 0.0, 0.0, 76.1, 77.7, 290, 291, 2.4, 2.2, 76.10, 63.71000, 35.8863, 33.6744, 1553.706, 29.87, 36.1812, 105.44, 326.1, 10.31, 1.10, 174.3, 172.0, 174.3, 4.964, 4.905, 4.9637, 6C
2010/08/18, 00:59:20, 752.50, 0.00, 29.1, 28.90, 29.10, 1015.2, 1015.3, 1015.22, 28.60528, -86.95403, 65.3183, 34.7127, 0.00, 56.28, 323.3, 10.00, 56.3, 56.99, 0.0, 0.0, 76.2, 78.0, 295, 299, 2.7, 2.4, 76.20, 63.70000, 35.8865, 33.6620, 1553.683, 29.87, 36.1773, 106.64, 325.5, 10.29, 1.10, 173.9, 170.1, 173.9, 4.637, 4.458, 4.6374, 6C
2010/08/18, 01:00:20, 751.00, 0.00, 29.1, 28.90, 29.10, 1015.2, 1015.3, 1015.22, 28.60753, -86.95595, 65.3200, 34.7079, 0.00, 56.28, 323.2, 10.00, 56.3, 56.99, 0.0, 0.0, 75.7, 77.3, 299, 300, 2.1, 2.0, 75.70, 63.68000, 35.8867, 33.6495, 1553.660, 29.87, 36.1817, 106.64, 324.7, 10.22, 1.06, 166.8, 165.5, 166.8, 4.484, 4.463, 4.4836, 6C
2010/08/18, 01:01:20, 754.40, 0.00, 29.1, 28.90, 29.10, 1015.2, 1015.3, 1015.22, 28.60978, -86.95783, 65.3195, 34.7057, 0.00, 56.28, 323.6, 10.00, 56.3, 56.99, 0.0, 0.0, 76.9, 78.9, 280, 283, 2.1, 2.0, 76.90, 63.67000, 35.8861, 33.6381, 1553.639, 29.89, 36.1830, 106.08, 324.9, 10.15, 1.10, 166.6, 165.7, 166.6, 5.147, 5.024, 5.1472, 6C
2010/08/18, 01:02:20, 752.90, 0.00, 29.1, 28.90, 29.10, 1015.2, 1015.3, 1015.22, 28.61212, -86.95978, 65.3148, 34.7046, 0.00, 56.28, 324.5, 10.60, 56.3, 56.99, 0.0, 0.0, 76.8, 78.7, 306, 311, 2.6, 2.2, 76.80, 63.66000, 35.8856, 33.6271, 1553.618, 29.90, 36.1808, 106.96, 325.2, 10.83, 1.10, 172.3, 166.6, 172.3, 4.449, 4.336, 4.4485, 6C
2010/08/18, 01:03:20, 0.00, 0.00, 29.1, 28.90, 29.10, 1015.2, 1015.2, 1015.22, 28.61450, -86.96178, 65.3149, 34.7032, 0.00, 56.28, 323.1, 10.70, 56.3, 56.99, 0.0, 0.0, 75.6, 77.9, 290, 291, 2.4, 2.3, 75.60, 63.64000, 35.8864, 33.6138, 1553.594, 29.89, 36.1819, 105.76, 325.3, 10.68, 1.06, 168.8, 167.7, 168.8, 5.069, 5.023, 5.0686, 6C
2010/08/18, 01:04:20, 754.80, 0.00, 29.1, 28.90, 29.10, 1015.2, 1015.2, 1015.22, 28.61688, -86.96385, 65.3111, 34.7001, 0.00, 56.28, 323.2, 10.70, 56.3, 56.99, 0.0, 0.0, 75.5, 76.8, 294, 297, 2.1, 1.8, 75.50, 63.63000, 35.8856, 33.6027, 1553.573, 29.87, 36.1816, 106.64, 324.8, 10.80, 1.10, 164.7, 161.0, 164.7, 4.939, 4.877, 4.9391, 6C
2010/08/18, 01:05:20, 757.80, 0.00, 29.1, 28.90, 29.10, 1015.2, 1015.2, 1015.22, 28.61923, -86.96597, 65.3107, 34.6981, 0.00, 56.28, 320.2, 10.90, 56.3, 56.99, 0.0, 0.0, 76.5, 78.0, 302, 303, 2.4, 2.1, 76.50, 63.62000, 35.8857, 33.5900, 1553.550, 29.84, 36.1828, 108.16, 322.8, 10.88, 1.10, 167.0, 163.3, 167.0, 4.664, 4.683, 4.6642, 6C
2010/08/18, 01:06:20, 754.10, 0.00, 29.1, 28.90, 29.10, 1015.2, 1015.3, 1015.22, 28.62160, -86.96808, 65.3037, 34.6975, 0.00, 56.28, 320.4, 10.90, 56.3, 56.99, 0.0, 0.0, 76.5, 78.9, 301, 302, 3.1, 2.8, 76.50, 63.60000, 35.8854, 33.5779, 1553.527, 29.82, 36.1788, 106.96, 323.0, 10.85, 1.06, 174.6, 170.9, 174.6, 4.703, 4.661, 4.7030, 6C
2010/08/18, 01:07:20, 760.20, 0.00, 29.1, 28.90, 29.10, 1015.2, 1015.3, 1015.22, 28.62392, -86.97023, 65.3045, 34.6959, 0.00, 56.28, 322.5, 10.80, 56.3, 56.99, 0.0, 0.0, 76.1, 77.6, 295, 298, 2.8, 2.8, 76.10, 63.59000, 35.8856, 33.5659, 1553.506, 29.82, 36.1805, 108.80, 322.7, 10.83, 1.10, 171.2, 171.3, 171.2, 4.978, 4.831, 4.9777, 6C
2010/08/18, 01:08:20, 755.50, 0.00, 29.1, 28.90, 29.10, 1015.2, 1015.3, 1015.22, 28.62625, -86.97237, 65.2989, 34.6957, 0.00, 56.28, 321.5, 10.80, 56.3, 56.99, 0.0, 0.0, 74.7, 77.0, 311, 314, 2.8, 2.3, 74.70, 63.57000, 35.8854, 33.5541, 1553.484, 29.82, 36.1771, 106.96, 323.8, 10.78, 1.17, 171.1, 164.1, 171.1, 4.230, 4.253, 4.2297, 6C